sat.trackr.live / text

‹ back to catalog

STARLINK-2050

NORAD 47357 · 2021-005J

PAYLOAD ACTIVE UNKNOWN

§ Identity

Operator
Country
US
Launch date
2021-01-20
Launch site
AFETR
Launch vehicle
Mass (kg)
RCS (m²)

Purposes: comms

External: N2YO · Heavens-Above · Gunter

§ Orbital elements

Epoch: 2026-09-09T09:53:46.725504Z

Period
94.01 min
Inclination
53.1594°
Eccentricity
0.0001390
Mean motion
15.31702823 rev/d
Perigee alt
469.8 km
Apogee alt
471.7 km
Semi-major
6,848.9 km
B*
2.0762e-5
RAAN
287.8917°
Arg perigee
78.7373°
Mean anomaly
281.3785°
Rev number
31,117

§ Raw data

STARLINK-20501 47357U 21005J   26252.41234636  .00000279  00000+0  20762-4 0  99982 47357  53.1594 287.8917 0001390  78.7373 281.3785 15.31702823311174

JSON: /api/v1/satellites/47357 · /tle

For live sub-satellite position, see the globe view (requires WebGL).

§ Visibility from observer

Set your observer location to see the next 7 days of passes ≥ 10°. The values pass through the URL so the page stays shareable.

No JS? Fill the form by hand. The geolocation button needs JavaScript.